DELTA 1 DEB *, 6213

Orbit data source: Space-Track

DELTA 1 DEB *, 6213 is space debris in SSO originally from a launch on Sun, 02 Oct 1966 UTC launched from the Air Force Western Test Range (AFWTR). Debris objects in space refer to the collection of defunct objects orbiting the Earth. Examples of debris include non-operational satellites, rocket bodies, and fragments generated from explosions, collisions, or faulty payload assembly.

Loading next visibility...
Identifier
6213, 1966-087E
Orbit
SSO
Last TLE update
10 hours ago
Origin
Manufacturer
Unknown
Mission
Spacecraft
Bus & Motor
Unknown
Mass
Unknown
Launch date (UTC)
1966-10-02 (59 years ago)
Launch vehicle
Unknown
Launch site
Air Force Western Test Range (AFWTR)
Object type
Payload
Rocket body
Debris
Shape & HBR
Unknown
Radar Cross Section
Small (<0.1 m²)

Expand to show TLE details & history

TLE from 10 hours ago
0 DELTA 1 DEB *
1 06213U 66087E   25183.44136009  .00001962  00000-0  47411-2 0  9992
2 06213 101.7655 155.7806 0039859 297.8175 215.9392 13.23454335750044
Epoch: 2025-07-02T10:35Z
TLE epoch observation values (Epoch: 2025-07-02T10:35:33.511Z)
Latitude
25.94531°
Longitude
-98.04462°
Altitude
1,198.894 km
Speed
7.245 km/s
True Right ascension
22h 46m 16s
True Declination
25° 49' 05"
Sunlit
Object was in daylight at epoch
Visualization orbit readout
Latitude
54.20991°
Longitude
59.95106°
Altitude
1,194.779 km
Speed
7.255 km/s
Apparent Right ascension
17h 11m 42s
Apparent Declination
67° 27' 01"
Sunlit
Object is in daylight
Visualization observer readout
Local Sidereal Time
08:43:05
Azimuth
19.629° NNE
Elevation
24.517°
Doppler factor
1
Orbital elements
Apogee altitude
1,199.089 km
Perigee altitude
1,138.925 km
Semi-major axis
7,547.144 km
Eccentricity
0.00399
Inclination
101.7655°
RAAN
155.7806°
Arg. of periapsis
297.8175°
True anomaly
Unknown
Mean anomaly
215.9392°
Eccentric anomaly
Unknown
Mean motion
3.31031 °/min
Orbital period
108.75 mins
BSTAR
0.0047411
Loading maneuver chart data...
Loading SW <> Apogee altitude chart data...
Loading historical data...
Loading historical data...
Loading historical data...
Loading historical data...
Loading historical data...
Loading historical data...
Loading historical data...
Other satellites on launch #87 in the year 1966 (1966-10-02 UTC)

DELTA 1 DEB * Visibility forecast

Observer location: undefined°, undefined°

Span
Click to sort rows by Start time (UTC) header in descending order
Start Az.
Max El. time (UTC)
Max El. Az.
Max El.
End time (UTC)
End Az.
11 mins2025-07-02 22:37:58.111Z193.121° SSW2025-07-02 22:42:58.111Z265.404° W36.105°2025-07-02 22:48:58.111Z329.459° NNW
10 mins2025-07-03 10:02:58.111Z50.209° ENE2025-07-03 10:06:58.111Z93.049° ESE25.077°2025-07-03 10:12:58.111Z152.667° SSE
12 mins2025-07-03 11:48:58.111Z5.326° NNE2025-07-03 11:53:58.111Z308.84° NW39.133°2025-07-03 12:00:58.111Z219.527° SW
9 mins2025-07-03 20:27:58.111Z96.521° ESE2025-07-03 20:31:58.111Z55.05° ENE21.805°2025-07-03 20:36:58.111Z8.385° NNE
|